owner,sensor,date,latitude,longitude,vertical_datum,sea_water_practical_salinity,qcFlag 
TABS,ioos:station:wmo:42051:1,2016-03-01T00:00:00Z,29.6350,-93.6417,2.0,23.7341,11111222 
TABS,ioos:station:wmo:42051:1,2016-03-01T00:30:00Z,29.6350,-93.6417,2.0,23.7206,11111222 
TABS,ioos:station:wmo:42051:1,2016-03-01T01:00:00Z,29.6350,-93.6417,2.0,23.7434,11111222 
TABS,ioos:station:wmo:42051:1,2016-03-01T01:30:00Z,29.6350,-93.6417,2.0,23.7185,11111222 
TABS,ioos:station:wmo:42051:1,2016-03-01T02:00:00Z,29.6350,-93.6417,2.0,23.7646,11111222 
TABS,ioos:station:wmo:42051:1,2016-03-01T02:30:00Z,29.6350,-93.6417,2.0,23.7404,11111222 
TABS,ioos:station:wmo:42051:1,2016-03-01T03:00:00Z,29.6350,-93.6417,2.0,23.7462,11111222 
TABS,ioos:station:wmo:42051:1,2016-03-01T03:30:00Z,29.6350,-93.6417,2.0,23.7321,11111222 
TABS,ioos:station:wmo:42051:1,2016-03-01T04:00:00Z,29.6350,-93.6417,2.0,23.7425,11111222 
TABS,ioos:station:wmo:42051:1,2016-03-01T04:30:00Z,29.6350,-93.6417,2.0,23.7367,11111222 
TABS,ioos:station:wmo:42051:1,2016-03-01T05:00:00Z,29.6350,-93.6417,2.0,23.7838,11111222 
TABS,ioos:station:wmo:42051:1,2016-03-01T05:30:00Z,29.6350,-93.6417,2.0,23.7767,11111222 
TABS,ioos:station:wmo:42051:1,2016-03-01T06:00:00Z,29.6350,-93.6417,2.0,23.7931,11111222 
TABS,ioos:station:wmo:42051:1,2016-03-01T06:30:00Z,29.6350,-93.6417,2.0,23.815,11111222 
TABS,ioos:station:wmo:42051:1,2016-03-01T07:00:00Z,29.6350,-93.6417,2.0,23.7819,11111222 
TABS,ioos:station:wmo:42051:1,2016-03-01T07:30:00Z,29.6350,-93.6417,2.0,23.8076,11111222 
TABS,ioos:station:wmo:42051:1,2016-03-01T08:00:00Z,29.6350,-93.6417,2.0,23.8896,11111222 
TABS,ioos:station:wmo:42051:1,2016-03-01T08:30:00Z,29.6350,-93.6417,2.0,23.9041,11111222 
TABS,ioos:station:wmo:42051:1,2016-03-01T09:00:00Z,29.6350,-93.6417,2.0,23.9152,11111222 
TABS,ioos:station:wmo:42051:1,2016-03-01T09:30:00Z,29.6350,-93.6417,2.0,23.894,11111222 
TABS,ioos:station:wmo:42051:1,2016-03-01T10:00:00Z,29.6350,-93.6417,2.0,23.9053,11111222 
TABS,ioos:station:wmo:42051:1,2016-03-01T10:30:00Z,29.6350,-93.6417,2.0,23.9037,11111222 
TABS,ioos:station:wmo:42051:1,2016-03-01T11:00:00Z,29.6350,-93.6417,2.0,23.9162,11111222 
TABS,ioos:station:wmo:42051:1,2016-03-01T11:30:00Z,29.6350,-93.6417,2.0,23.9051,11111222 
TABS,ioos:station:wmo:42051:1,2016-03-01T12:00:00Z,29.6350,-93.6417,2.0,23.9168,11111222 
TABS,ioos:station:wmo:42051:1,2016-03-01T12:30:00Z,29.6350,-93.6417,2.0,23.9173,11111222 
TABS,ioos:station:wmo:42051:1,2016-03-01T13:00:00Z,29.6350,-93.6417,2.0,23.9127,11111222 
TABS,ioos:station:wmo:42051:1,2016-03-01T13:30:00Z,29.6350,-93.6417,2.0,23.9198,11111222 
TABS,ioos:station:wmo:42051:1,2016-03-01T14:00:00Z,29.6350,-93.6417,2.0,23.9217,11111222 
TABS,ioos:station:wmo:42051:1,2016-03-01T14:30:00Z,29.6350,-93.6417,2.0,23.9305,11111222 
TABS,ioos:station:wmo:42051:1,2016-03-01T15:00:00Z,29.6350,-93.6417,2.0,23.9465,11111222 
TABS,ioos:station:wmo:42051:1,2016-03-01T15:30:00Z,29.6350,-93.6417,2.0,23.9829,11111222 
TABS,ioos:station:wmo:42051:1,2016-03-01T16:00:00Z,29.6350,-93.6417,2.0,23.9767,11111222 
TABS,ioos:station:wmo:42051:1,2016-03-01T16:30:00Z,29.6350,-93.6417,2.0,23.9733,11111222 
TABS,ioos:station:wmo:42051:1,2016-03-01T17:00:00Z,29.6350,-93.6417,2.0,23.9975,11111222 
TABS,ioos:station:wmo:42051:1,2016-03-01T17:30:00Z,29.6350,-93.6417,2.0,23.9937,11111222 
TABS,ioos:station:wmo:42051:1,2016-03-01T18:00:00Z,29.6350,-93.6417,2.0,24.0341,11111222 
TABS,ioos:station:wmo:42051:1,2016-03-01T18:30:00Z,29.6350,-93.6417,2.0,24.0351,11111222 
TABS,ioos:station:wmo:42051:1,2016-03-01T19:00:00Z,29.6350,-93.6417,2.0,24.0454,11111222 
TABS,ioos:station:wmo:42051:1,2016-03-01T19:30:00Z,29.6350,-93.6417,2.0,24.0364,11111222 
TABS,ioos:station:wmo:42051:1,2016-03-01T20:00:00Z,29.6350,-93.6417,2.0,24.0377,11111222 
TABS,ioos:station:wmo:42051:1,2016-03-01T20:30:00Z,29.6350,-93.6417,2.0,24.0403,11111222 
TABS,ioos:station:wmo:42051:1,2016-03-01T21:00:00Z,29.6350,-93.6417,2.0,24.0464,11111222 
TABS,ioos:station:wmo:42051:1,2016-03-01T21:30:00Z,29.6350,-93.6417,2.0,24.0513,11111222 
TABS,ioos:station:wmo:42051:1,2016-03-01T22:00:00Z,29.6350,-93.6417,2.0,24.0526,11111222 
TABS,ioos:station:wmo:42051:1,2016-03-01T22:30:00Z,29.6350,-93.6417,2.0,24.0674,11111222 
TABS,ioos:station:wmo:42051:1,2016-03-01T23:00:00Z,29.6350,-93.6417,2.0,24.0627,11111222 
TABS,ioos:station:wmo:42051:1,2016-03-01T23:30:00Z,29.6350,-93.6417,2.0,24.069,11111222 
TABS,ioos:station:wmo:42051:1,2016-03-02T00:00:00Z,29.6350,-93.6417,2.0,24.0673,11111222 
TABS,ioos:station:wmo:42051:1,2016-03-02T00:30:00Z,29.6350,-93.6417,2.0,24.0685,11111222 
TABS,ioos:station:wmo:42051:1,2016-03-02T01:00:00Z,29.6350,-93.6417,2.0,24.0735,11111222 
TABS,ioos:station:wmo:42051:1,2016-03-02T01:30:00Z,29.6350,-93.6417,2.0,24.0699,11111222 
TABS,ioos:station:wmo:42051:1,2016-03-02T02:00:00Z,29.6350,-93.6417,2.0,24.0696,11111222 
TABS,ioos:station:wmo:42051:1,2016-03-02T02:30:00Z,29.6350,-93.6417,2.0,24.0019,11111222 
TABS,ioos:station:wmo:42051:1,2016-03-02T03:00:00Z,29.6350,-93.6417,2.0,23.9791,11111222 
TABS,ioos:station:wmo:42051:1,2016-03-02T03:30:00Z,29.6350,-93.6417,2.0,24.0061,11111222 
TABS,ioos:station:wmo:42051:1,2016-03-02T04:00:00Z,29.6350,-93.6417,2.0,24.0003,11111222 
TABS,ioos:station:wmo:42051:1,2016-03-02T04:30:00Z,29.6350,-93.6417,2.0,23.9827,11111222 
TABS,ioos:station:wmo:42051:1,2016-03-02T05:00:00Z,29.6350,-93.6417,2.0,23.9843,11111222 
TABS,ioos:station:wmo:42051:1,2016-03-02T05:30:00Z,29.6350,-93.6417,2.0,23.975,11111222 
TABS,ioos:station:wmo:42051:1,2016-03-02T06:00:00Z,29.6350,-93.6417,2.0,23.9823,11111222 
TABS,ioos:station:wmo:42051:1,2016-03-02T06:30:00Z,29.6350,-93.6417,2.0,24.0003,11111222 
TABS,ioos:station:wmo:42051:1,2016-03-02T07:00:00Z,29.6350,-93.6417,2.0,23.7713,11111222 
TABS,ioos:station:wmo:42051:1,2016-03-02T07:30:00Z,29.6350,-93.6417,2.0,23.838,11111222 
TABS,ioos:station:wmo:42051:1,2016-03-02T08:00:00Z,29.6350,-93.6417,2.0,23.8247,11111222 
TABS,ioos:station:wmo:42051:1,2016-03-02T08:30:00Z,29.6350,-93.6417,2.0,24.006,11111222 
TABS,ioos:station:wmo:42051:1,2016-03-02T09:00:00Z,29.6350,-93.6417,2.0,23.9159,11111222 
TABS,ioos:station:wmo:42051:1,2016-03-02T09:30:00Z,29.6350,-93.6417,2.0,23.916,11111222 
TABS,ioos:station:wmo:42051:1,2016-03-02T10:00:00Z,29.6350,-93.6417,2.0,24.1101,11111222 
TABS,ioos:station:wmo:42051:1,2016-03-02T10:30:00Z,29.6350,-93.6417,2.0,24.0499,11111222 
TABS,ioos:station:wmo:42051:1,2016-03-02T11:00:00Z,29.6350,-93.6417,2.0,24.1523,11111222 
TABS,ioos:station:wmo:42051:1,2016-03-02T11:30:00Z,29.6350,-93.6417,2.0,24.0578,11111222 
TABS,ioos:station:wmo:42051:1,2016-03-02T12:00:00Z,29.6350,-93.6417,2.0,24.0207,11111222 
TABS,ioos:station:wmo:42051:1,2016-03-02T12:30:00Z,29.6350,-93.6417,2.0,24.1382,11111222 
TABS,ioos:station:wmo:42051:1,2016-03-02T13:00:00Z,29.6350,-93.6417,2.0,24.0005,11111222 
TABS,ioos:station:wmo:42051:1,2016-03-02T13:30:00Z,29.6350,-93.6417,2.0,24.12,11111222 
TABS,ioos:station:wmo:42051:1,2016-03-02T14:00:00Z,29.6350,-93.6417,2.0,24.081,11111222 
TABS,ioos:station:wmo:42051:1,2016-03-02T14:30:00Z,29.6350,-93.6417,2.0,24.101,11111222 
TABS,ioos:station:wmo:42051:1,2016-03-02T15:00:00Z,29.6350,-93.6417,2.0,23.9759,11111222 
TABS,ioos:station:wmo:42051:1,2016-03-02T15:30:00Z,29.6350,-93.6417,2.0,23.8788,11111222 
TABS,ioos:station:wmo:42051:1,2016-03-02T16:00:00Z,29.6350,-93.6417,2.0,23.9182,11111222 
TABS,ioos:station:wmo:42051:1,2016-03-02T16:30:00Z,29.6350,-93.6417,2.0,24.0297,11111222 
TABS,ioos:station:wmo:42051:1,2016-03-02T17:00:00Z,29.6350,-93.6417,2.0,23.8658,11111222 
TABS,ioos:station:wmo:42051:1,2016-03-02T17:30:00Z,29.6350,-93.6417,2.0,23.9493,11111222 
TABS,ioos:station:wmo:42051:1,2016-03-02T18:00:00Z,29.6350,-93.6417,2.0,23.9659,11111222 
TABS,ioos:station:wmo:42051:1,2016-03-02T18:30:00Z,29.6350,-93.6417,2.0,24.002,11111222 
TABS,ioos:station:wmo:42051:1,2016-03-02T19:00:00Z,29.6350,-93.6417,2.0,23.8258,11111222 
TABS,ioos:station:wmo:42051:1,2016-03-02T19:30:00Z,29.6350,-93.6417,2.0,23.9025,11111222 
TABS,ioos:station:wmo:42051:1,2016-03-02T20:00:00Z,29.6350,-93.6417,2.0,23.8988,11111222 
TABS,ioos:station:wmo:42051:1,2016-03-02T20:30:00Z,29.6350,-93.6417,2.0,24.0319,11111222 
TABS,ioos:station:wmo:42051:1,2016-03-02T21:00:00Z,29.6350,-93.6417,2.0,24.0063,11111222 
TABS,ioos:station:wmo:42051:1,2016-03-02T21:30:00Z,29.6350,-93.6417,2.0,23.9134,11111222 
TABS,ioos:station:wmo:42051:1,2016-03-02T22:00:00Z,29.6350,-93.6417,2.0,23.9566,11111222 
TABS,ioos:station:wmo:42051:1,2016-03-02T22:30:00Z,29.6350,-93.6417,2.0,24.0669,11111222 
TABS,ioos:station:wmo:42051:1,2016-03-02T23:00:00Z,29.6350,-93.6417,2.0,24.1032,11111222 
TABS,ioos:station:wmo:42051:1,2016-03-02T23:30:00Z,29.6350,-93.6417,2.0,24.2756,11111222 
TABS,ioos:station:wmo:42051:1,2016-03-03T00:00:00Z,29.6350,-93.6417,2.0,24.1358,11111222 
TABS,ioos:station:wmo:42051:1,2016-03-03T00:30:00Z,29.6350,-93.6417,2.0,24.1266,11111222 
TABS,ioos:station:wmo:42051:1,2016-03-03T01:00:00Z,29.6350,-93.6417,2.0,24.0956,11111222 
TABS,ioos:station:wmo:42051:1,2016-03-03T01:30:00Z,29.6350,-93.6417,2.0,24.3456,11111222 
TABS,ioos:station:wmo:42051:1,2016-03-03T02:00:00Z,29.6350,-93.6417,2.0,24.2931,11111222 
TABS,ioos:station:wmo:42051:1,2016-03-03T02:30:00Z,29.6350,-93.6417,2.0,24.2902,11111222 
TABS,ioos:station:wmo:42051:1,2016-03-03T03:00:00Z,29.6350,-93.6417,2.0,24.0889,11111222 
TABS,ioos:station:wmo:42051:1,2016-03-03T03:30:00Z,29.6350,-93.6417,2.0,24.1407,11111222 
TABS,ioos:station:wmo:42051:1,2016-03-03T04:00:00Z,29.6350,-93.6417,2.0,24.1528,11111222 
TABS,ioos:station:wmo:42051:1,2016-03-03T04:30:00Z,29.6350,-93.6417,2.0,24.2554,11111222 
TABS,ioos:station:wmo:42051:1,2016-03-03T05:00:00Z,29.6350,-93.6417,2.0,24.2159,11111222 
TABS,ioos:station:wmo:42051:1,2016-03-03T05:30:00Z,29.6350,-93.6417,2.0,24.2137,11111222 
TABS,ioos:station:wmo:42051:1,2016-03-03T06:00:00Z,29.6350,-93.6417,2.0,24.2321,11111222 
TABS,ioos:station:wmo:42051:1,2016-03-03T06:30:00Z,29.6350,-93.6417,2.0,24.1808,11111222 
TABS,ioos:station:wmo:42051:1,2016-03-03T07:00:00Z,29.6350,-93.6417,2.0,24.2072,11111222 
TABS,ioos:station:wmo:42051:1,2016-03-03T07:30:00Z,29.6350,-93.6417,2.0,24.0844,11111222 
TABS,ioos:station:wmo:42051:1,2016-03-03T08:00:00Z,29.6350,-93.6417,2.0,23.9062,11111222 
TABS,ioos:station:wmo:42051:1,2016-03-03T08:30:00Z,29.6350,-93.6417,2.0,23.9365,11111222 
TABS,ioos:station:wmo:42051:1,2016-03-03T09:00:00Z,29.6350,-93.6417,2.0,24.022,11111222 
TABS,ioos:station:wmo:42051:1,2016-03-03T09:30:00Z,29.6350,-93.6417,2.0,23.8217,11111222 
TABS,ioos:station:wmo:42051:1,2016-03-03T10:00:00Z,29.6350,-93.6417,2.0,23.8688,11111222 
TABS,ioos:station:wmo:42051:1,2016-03-03T10:30:00Z,29.6350,-93.6417,2.0,23.9878,11111222 
TABS,ioos:station:wmo:42051:1,2016-03-03T11:00:00Z,29.6350,-93.6417,2.0,24.0336,11111222 
TABS,ioos:station:wmo:42051:1,2016-03-03T11:30:00Z,29.6350,-93.6417,2.0,23.8791,11111222 
TABS,ioos:station:wmo:42051:1,2016-03-03T12:00:00Z,29.6350,-93.6417,2.0,23.9138,11111222 
TABS,ioos:station:wmo:42051:1,2016-03-03T12:30:00Z,29.6350,-93.6417,2.0,24.0423,11111222 
TABS,ioos:station:wmo:42051:1,2016-03-03T13:00:00Z,29.6350,-93.6417,2.0,24.1621,11111222 
TABS,ioos:station:wmo:42051:1,2016-03-03T13:30:00Z,29.6350,-93.6417,2.0,24.1223,11111222 
TABS,ioos:station:wmo:42051:1,2016-03-03T14:00:00Z,29.6350,-93.6417,2.0,24.0455,11111222 
TABS,ioos:station:wmo:42051:1,2016-03-03T14:30:00Z,29.6350,-93.6417,2.0,23.8994,11111222 
TABS,ioos:station:wmo:42051:1,2016-03-03T15:00:00Z,29.6350,-93.6417,2.0,23.9013,11111222 
TABS,ioos:station:wmo:42051:1,2016-03-03T15:30:00Z,29.6350,-93.6417,2.0,24.0713,11111222 
TABS,ioos:station:wmo:42051:1,2016-03-03T16:00:00Z,29.6350,-93.6417,2.0,23.9748,11111222 
TABS,ioos:station:wmo:42051:1,2016-03-03T16:30:00Z,29.6350,-93.6417,2.0,23.9043,11111222 
TABS,ioos:station:wmo:42051:1,2016-03-03T17:00:00Z,29.6350,-93.6417,2.0,23.9412,11111222 
TABS,ioos:station:wmo:42051:1,2016-03-03T17:30:00Z,29.6350,-93.6417,2.0,24.0229,11111222 
TABS,ioos:station:wmo:42051:1,2016-03-03T18:00:00Z,29.6350,-93.6417,2.0,24.0268,11111222 
TABS,ioos:station:wmo:42051:1,2016-03-03T18:30:00Z,29.6350,-93.6417,2.0,24.0583,11111222 
TABS,ioos:station:wmo:42051:1,2016-03-03T19:00:00Z,29.6350,-93.6417,2.0,23.9269,11111222 
TABS,ioos:station:wmo:42051:1,2016-03-03T19:30:00Z,29.6350,-93.6417,2.0,23.7376,11111222 
TABS,ioos:station:wmo:42051:1,2016-03-03T20:00:00Z,29.6350,-93.6417,2.0,23.7698,11111222 
TABS,ioos:station:wmo:42051:1,2016-03-03T20:30:00Z,29.6350,-93.6417,2.0,23.7758,11111222 
TABS,ioos:station:wmo:42051:1,2016-03-03T21:00:00Z,29.6350,-93.6417,2.0,23.5975,11111222 
TABS,ioos:station:wmo:42051:1,2016-03-03T21:30:00Z,29.6350,-93.6417,2.0,23.6975,11111222 
TABS,ioos:station:wmo:42051:1,2016-03-03T22:00:00Z,29.6350,-93.6417,2.0,23.4753,11111222 
TABS,ioos:station:wmo:42051:1,2016-03-03T22:30:00Z,29.6350,-93.6417,2.0,23.5781,11111222 
TABS,ioos:station:wmo:42051:1,2016-03-03T23:00:00Z,29.6350,-93.6417,2.0,23.5404,11111222 
TABS,ioos:station:wmo:42051:1,2016-03-03T23:30:00Z,29.6350,-93.6417,2.0,23.2386,11111222 
TABS,ioos:station:wmo:42051:1,2016-03-04T00:00:00Z,29.6350,-93.6417,2.0,23.2063,11111222 
TABS,ioos:station:wmo:42051:1,2016-03-04T00:30:00Z,29.6350,-93.6417,2.0,23.3417,11111222 
TABS,ioos:station:wmo:42051:1,2016-03-04T01:00:00Z,29.6350,-93.6417,2.0,23.2624,11111222 
TABS,ioos:station:wmo:42051:1,2016-03-04T01:30:00Z,29.6350,-93.6417,2.0,23.2425,11111222 
TABS,ioos:station:wmo:42051:1,2016-03-04T02:00:00Z,29.6350,-93.6417,2.0,23.4221,11111222 
TABS,ioos:station:wmo:42051:1,2016-03-04T02:30:00Z,29.6350,-93.6417,2.0,23.3548,11111222 
TABS,ioos:station:wmo:42051:1,2016-03-04T03:00:00Z,29.6350,-93.6417,2.0,23.3598,11111222 
TABS,ioos:station:wmo:42051:1,2016-03-04T03:30:00Z,29.6350,-93.6417,2.0,23.4045,11111222 
TABS,ioos:station:wmo:42051:1,2016-03-04T04:00:00Z,29.6350,-93.6417,2.0,23.1622,11111222 
TABS,ioos:station:wmo:42051:1,2016-03-04T04:30:00Z,29.6350,-93.6417,2.0,23.0974,11111222 
TABS,ioos:station:wmo:42051:1,2016-03-04T05:00:00Z,29.6350,-93.6417,2.0,23.0484,11111222 
TABS,ioos:station:wmo:42051:1,2016-03-04T05:30:00Z,29.6350,-93.6417,2.0,23.3311,11111222 
TABS,ioos:station:wmo:42051:1,2016-03-04T06:00:00Z,29.6350,-93.6417,2.0,23.3425,11111222 
TABS,ioos:station:wmo:42051:1,2016-03-04T06:30:00Z,29.6350,-93.6417,2.0,23.2594,11111222 
TABS,ioos:station:wmo:42051:1,2016-03-04T07:00:00Z,29.6350,-93.6417,2.0,23.2009,11111222 
TABS,ioos:station:wmo:42051:1,2016-03-04T07:30:00Z,29.6350,-93.6417,2.0,23.1615,11111222 
TABS,ioos:station:wmo:42051:1,2016-03-04T08:00:00Z,29.6350,-93.6417,2.0,23.1801,11111222 
TABS,ioos:station:wmo:42051:1,2016-03-04T08:30:00Z,29.6350,-93.6417,2.0,23.1495,11111222 
TABS,ioos:station:wmo:42051:1,2016-03-04T09:00:00Z,29.6350,-93.6417,2.0,23.1532,11111222 
TABS,ioos:station:wmo:42051:1,2016-03-04T09:30:00Z,29.6350,-93.6417,2.0,23.1432,11111222 
TABS,ioos:station:wmo:42051:1,2016-03-04T10:00:00Z,29.6350,-93.6417,2.0,23.1092,11111222 
TABS,ioos:station:wmo:42051:1,2016-03-04T10:30:00Z,29.6350,-93.6417,2.0,23.184,11111222 
TABS,ioos:station:wmo:42051:1,2016-03-04T11:00:00Z,29.6350,-93.6417,2.0,23.1811,11111222 
TABS,ioos:station:wmo:42051:1,2016-03-04T11:30:00Z,29.6350,-93.6417,2.0,23.2361,11111222 
TABS,ioos:station:wmo:42051:1,2016-03-04T12:00:00Z,29.6350,-93.6417,2.0,23.2543,11111222 
TABS,ioos:station:wmo:42051:1,2016-03-04T12:30:00Z,29.6350,-93.6417,2.0,23.2841,11111222 
TABS,ioos:station:wmo:42051:1,2016-03-04T13:00:00Z,29.6350,-93.6417,2.0,23.34,11111222 
TABS,ioos:station:wmo:42051:1,2016-03-04T13:30:00Z,29.6350,-93.6417,2.0,23.3612,11111222 
TABS,ioos:station:wmo:42051:1,2016-03-04T14:00:00Z,29.6350,-93.6417,2.0,23.3642,11111222 
TABS,ioos:station:wmo:42051:1,2016-03-04T14:30:00Z,29.6350,-93.6417,2.0,23.3922,11111222 
TABS,ioos:station:wmo:42051:1,2016-03-04T15:00:00Z,29.6350,-93.6417,2.0,23.377,11111222 
TABS,ioos:station:wmo:42051:1,2016-03-04T15:30:00Z,29.6350,-93.6417,2.0,23.4408,11111222 
TABS,ioos:station:wmo:42051:1,2016-03-04T16:00:00Z,29.6350,-93.6417,2.0,23.4695,11111222 
TABS,ioos:station:wmo:42051:1,2016-03-04T16:30:00Z,29.6350,-93.6417,2.0,23.5001,11111222 
TABS,ioos:station:wmo:42051:1,2016-03-04T17:00:00Z,29.6350,-93.6417,2.0,23.5369,11111222 
TABS,ioos:station:wmo:42051:1,2016-03-04T17:30:00Z,29.6350,-93.6417,2.0,23.6248,11111222 
TABS,ioos:station:wmo:42051:1,2016-03-04T18:00:00Z,29.6350,-93.6417,2.0,23.6453,11111222 
TABS,ioos:station:wmo:42051:1,2016-03-04T18:30:00Z,29.6350,-93.6417,2.0,23.7832,11111222 
TABS,ioos:station:wmo:42051:1,2016-03-04T19:00:00Z,29.6350,-93.6417,2.0,23.8368,11111222 
TABS,ioos:station:wmo:42051:1,2016-03-04T19:30:00Z,29.6350,-93.6417,2.0,23.9416,11111222 
TABS,ioos:station:wmo:42051:1,2016-03-04T20:00:00Z,29.6350,-93.6417,2.0,24.0267,11111222 
TABS,ioos:station:wmo:42051:1,2016-03-04T20:30:00Z,29.6350,-93.6417,2.0,24.0655,11111222 
TABS,ioos:station:wmo:42051:1,2016-03-04T21:00:00Z,29.6350,-93.6417,2.0,24.148,11111222 
TABS,ioos:station:wmo:42051:1,2016-03-04T21:30:00Z,29.6350,-93.6417,2.0,24.2645,11111222 
TABS,ioos:station:wmo:42051:1,2016-03-04T22:00:00Z,29.6350,-93.6417,2.0,24.2841,11111222 
TABS,ioos:station:wmo:42051:1,2016-03-04T22:30:00Z,29.6350,-93.6417,2.0,24.3254,11111222 
TABS,ioos:station:wmo:42051:1,2016-03-04T23:00:00Z,29.6350,-93.6417,2.0,24.3007,11111222 
TABS,ioos:station:wmo:42051:1,2016-03-04T23:30:00Z,29.6350,-93.6417,2.0,24.3366,11111222 
TABS,ioos:station:wmo:42051:1,2016-03-05T00:00:00Z,29.6350,-93.6417,2.0,24.5111,11111222 
TABS,ioos:station:wmo:42051:1,2016-03-05T00:30:00Z,29.6350,-93.6417,2.0,24.4778,11111222 
TABS,ioos:station:wmo:42051:1,2016-03-05T01:00:00Z,29.6350,-93.6417,2.0,24.4695,11111222 
TABS,ioos:station:wmo:42051:1,2016-03-05T01:30:00Z,29.6350,-93.6417,2.0,24.4771,11111222 
TABS,ioos:station:wmo:42051:1,2016-03-05T02:00:00Z,29.6350,-93.6417,2.0,24.4924,11111222 
TABS,ioos:station:wmo:42051:1,2016-03-05T02:30:00Z,29.6350,-93.6417,2.0,24.4864,11111222 
TABS,ioos:station:wmo:42051:1,2016-03-05T03:00:00Z,29.6350,-93.6417,2.0,24.4817,11111222 
TABS,ioos:station:wmo:42051:1,2016-03-05T03:30:00Z,29.6350,-93.6417,2.0,24.5648,11111222 
TABS,ioos:station:wmo:42051:1,2016-03-05T04:00:00Z,29.6350,-93.6417,2.0,24.5772,11111222 
TABS,ioos:station:wmo:42051:1,2016-03-05T04:30:00Z,29.6350,-93.6417,2.0,24.1243,11111222 
TABS,ioos:station:wmo:42051:1,2016-03-05T05:00:00Z,29.6350,-93.6417,2.0,24.2118,11111222 
TABS,ioos:station:wmo:42051:1,2016-03-05T05:30:00Z,29.6350,-93.6417,2.0,24.239,11111222 
TABS,ioos:station:wmo:42051:1,2016-03-05T06:00:00Z,29.6350,-93.6417,2.0,24.2066,11111222 
TABS,ioos:station:wmo:42051:1,2016-03-05T06:30:00Z,29.6350,-93.6417,2.0,24.1257,11111222 
TABS,ioos:station:wmo:42051:1,2016-03-05T07:00:00Z,29.6350,-93.6417,2.0,24.0744,11111222 
TABS,ioos:station:wmo:42051:1,2016-03-05T07:30:00Z,29.6350,-93.6417,2.0,24.0134,11111222 
TABS,ioos:station:wmo:42051:1,2016-03-05T08:00:00Z,29.6350,-93.6417,2.0,24.0399,11111222 
TABS,ioos:station:wmo:42051:1,2016-03-05T08:30:00Z,29.6350,-93.6417,2.0,23.9953,11111222 
TABS,ioos:station:wmo:42051:1,2016-03-05T09:00:00Z,29.6350,-93.6417,2.0,24.0235,11111222 
TABS,ioos:station:wmo:42051:1,2016-03-05T09:30:00Z,29.6350,-93.6417,2.0,23.9959,11111222 
TABS,ioos:station:wmo:42051:1,2016-03-05T10:00:00Z,29.6350,-93.6417,2.0,24.0924,11111222 
TABS,ioos:station:wmo:42051:1,2016-03-05T10:30:00Z,29.6350,-93.6417,2.0,24.0599,11111222 
TABS,ioos:station:wmo:42051:1,2016-03-05T11:00:00Z,29.6350,-93.6417,2.0,23.976,11111222 
TABS,ioos:station:wmo:42051:1,2016-03-05T11:30:00Z,29.6350,-93.6417,2.0,23.9938,11111222 
TABS,ioos:station:wmo:42051:1,2016-03-05T12:00:00Z,29.6350,-93.6417,2.0,23.9157,11111222 
TABS,ioos:station:wmo:42051:1,2016-03-05T12:30:00Z,29.6350,-93.6417,2.0,24.0301,11111222 
TABS,ioos:station:wmo:42051:1,2016-03-05T13:00:00Z,29.6350,-93.6417,2.0,23.8278,11111222 
TABS,ioos:station:wmo:42051:1,2016-03-05T13:30:00Z,29.6350,-93.6417,2.0,23.9286,11111222 
TABS,ioos:station:wmo:42051:1,2016-03-05T14:00:00Z,29.6350,-93.6417,2.0,23.9423,11111222 
TABS,ioos:station:wmo:42051:1,2016-03-05T14:30:00Z,29.6350,-93.6417,2.0,24.0024,11111222 
TABS,ioos:station:wmo:42051:1,2016-03-05T15:00:00Z,29.6350,-93.6417,2.0,24.0053,11111222 
TABS,ioos:station:wmo:42051:1,2016-03-05T15:30:00Z,29.6350,-93.6417,2.0,23.9107,11111222 
TABS,ioos:station:wmo:42051:1,2016-03-05T16:00:00Z,29.6350,-93.6417,2.0,23.9176,11111222 
TABS,ioos:station:wmo:42051:1,2016-03-05T16:30:00Z,29.6350,-93.6417,2.0,24.0051,11111222 
TABS,ioos:station:wmo:42051:1,2016-03-05T17:00:00Z,29.6350,-93.6417,2.0,23.907,11111222 
TABS,ioos:station:wmo:42051:1,2016-03-05T17:30:00Z,29.6350,-93.6417,2.0,23.8631,11111222 
TABS,ioos:station:wmo:42051:1,2016-03-05T18:00:00Z,29.6350,-93.6417,2.0,23.8125,11111222 
TABS,ioos:station:wmo:42051:1,2016-03-05T18:30:00Z,29.6350,-93.6417,2.0,23.8926,11111222 
TABS,ioos:station:wmo:42051:1,2016-03-05T19:00:00Z,29.6350,-93.6417,2.0,23.8831,11111222 
TABS,ioos:station:wmo:42051:1,2016-03-05T19:30:00Z,29.6350,-93.6417,2.0,23.8631,11111222 
TABS,ioos:station:wmo:42051:1,2016-03-05T20:00:00Z,29.6350,-93.6417,2.0,23.8519,11111222 
TABS,ioos:station:wmo:42051:1,2016-03-05T20:30:00Z,29.6350,-93.6417,2.0,23.7993,11111222 
TABS,ioos:station:wmo:42051:1,2016-03-05T21:00:00Z,29.6350,-93.6417,2.0,23.7899,11111222 
TABS,ioos:station:wmo:42051:1,2016-03-05T21:30:00Z,29.6350,-93.6417,2.0,23.8573,11111222 
TABS,ioos:station:wmo:42051:1,2016-03-05T22:00:00Z,29.6350,-93.6417,2.0,23.714,11111222 
TABS,ioos:station:wmo:42051:1,2016-03-05T22:30:00Z,29.6350,-93.6417,2.0,23.7755,11111222 
TABS,ioos:station:wmo:42051:1,2016-03-05T23:00:00Z,29.6350,-93.6417,2.0,23.7379,11111222 
TABS,ioos:station:wmo:42051:1,2016-03-05T23:30:00Z,29.6350,-93.6417,2.0,23.6855,11111222 
TABS,ioos:station:wmo:42051:1,2016-03-06T00:00:00Z,29.6350,-93.6417,2.0,23.7352,11111222 
TABS,ioos:station:wmo:42051:1,2016-03-06T00:30:00Z,29.6350,-93.6417,2.0,23.8193,11111222 
TABS,ioos:station:wmo:42051:1,2016-03-06T01:00:00Z,29.6350,-93.6417,2.0,23.8118,11111222 
TABS,ioos:station:wmo:42051:1,2016-03-06T01:30:00Z,29.6350,-93.6417,2.0,23.8002,11111222 
TABS,ioos:station:wmo:42051:1,2016-03-06T02:00:00Z,29.6350,-93.6417,2.0,24.2974,11111222 
TABS,ioos:station:wmo:42051:1,2016-03-06T02:30:00Z,29.6350,-93.6417,2.0,24.321,11111222 
TABS,ioos:station:wmo:42051:1,2016-03-06T03:00:00Z,29.6350,-93.6417,2.0,24.3497,11111222 
TABS,ioos:station:wmo:42051:1,2016-03-06T03:30:00Z,29.6350,-93.6417,2.0,24.3588,11111222 
TABS,ioos:station:wmo:42051:1,2016-03-06T04:00:00Z,29.6350,-93.6417,2.0,24.3891,11111222 
TABS,ioos:station:wmo:42051:1,2016-03-06T04:30:00Z,29.6350,-93.6417,2.0,24.3722,11111222 
TABS,ioos:station:wmo:42051:1,2016-03-06T05:00:00Z,29.6350,-93.6417,2.0,24.4,11111222 
TABS,ioos:station:wmo:42051:1,2016-03-06T05:30:00Z,29.6350,-93.6417,2.0,24.4085,11111222 
TABS,ioos:station:wmo:42051:1,2016-03-06T06:00:00Z,29.6350,-93.6417,2.0,24.4152,11111222 
TABS,ioos:station:wmo:42051:1,2016-03-06T06:30:00Z,29.6350,-93.6417,2.0,24.3984,11111222 
TABS,ioos:station:wmo:42051:1,2016-03-06T07:00:00Z,29.6350,-93.6417,2.0,24.3851,11111222 
TABS,ioos:station:wmo:42051:1,2016-03-06T07:30:00Z,29.6350,-93.6417,2.0,24.3839,11111222 
TABS,ioos:station:wmo:42051:1,2016-03-06T08:00:00Z,29.6350,-93.6417,2.0,24.3444,11111222 
TABS,ioos:station:wmo:42051:1,2016-03-06T08:30:00Z,29.6350,-93.6417,2.0,24.3157,11111222 
TABS,ioos:station:wmo:42051:1,2016-03-06T09:00:00Z,29.6350,-93.6417,2.0,24.3053,11111222 
TABS,ioos:station:wmo:42051:1,2016-03-06T09:30:00Z,29.6350,-93.6417,2.0,24.2864,11111222 
TABS,ioos:station:wmo:42051:1,2016-03-06T10:00:00Z,29.6350,-93.6417,2.0,24.2629,11111222 
TABS,ioos:station:wmo:42051:1,2016-03-06T10:30:00Z,29.6350,-93.6417,2.0,24.2262,11111222 
TABS,ioos:station:wmo:42051:1,2016-03-06T11:00:00Z,29.6350,-93.6417,2.0,24.2012,11111222 
TABS,ioos:station:wmo:42051:1,2016-03-06T11:30:00Z,29.6350,-93.6417,2.0,24.2059,11111222 
TABS,ioos:station:wmo:42051:1,2016-03-06T12:00:00Z,29.6350,-93.6417,2.0,24.2076,11111222 